Location: Oxnard Community Center
(34.1947°N, 119.1812°W)
Time: 11:51:41
(UTC+00:00)

Cosmos 1331 Rocket - Pass Details

Date: 17 July 2025
Orbit: 745 x 773 km, 74.0° (Epoch: 20 April)

Event Time Altitude Azimuth Distance (km) Brightness Sun altitude
Exits shadow 10:52:59 - 150° (SSE) 2,792 6.7 -21.5°
Reaches altitude 10° 10:54:53 10° 136° (SE) 2,259 6.4 -21.2°
Drops below altitude 10° 11:01:23 10° 57° (ENE) 2,262 7.6 -20.3°
Enters shadow 12:01:48 -65° 200° (SSW) 12,420 10.1 -10.8°
Maximum altitude 12:39:34 43° 291° (WNW) 1,043 4.5 -4.2°
